Weather Roundup
Issued by NWS

Home | Current Version | Previous Version | Graphics & Text | Print | Product List | Glossary Off
Versions: 1 2 3 4 5 6 7 8 9 10 11 12 13 14 15 16 17 18 19 20 21 22 23 24 25 26 27 28 29 30 31 32 33 34 35 36 37 38 39 40 41 42 43 44 45 46 47 48 49 50

000
NZUS93 KARX 270010
HRRWXR

CURRENT HOURLY OBSERVATIONS ACROSS
MUCH OF THE UPPER MISSISSIPPI VALLEY
NATIONAL WEATHER SERVICE LA CROSSE WI
600 PM CST FRI DEC 26 2014


...SOUTHEAST MINNESOTA...


CITY           SKY/WX    TMP DP  RH WIND       PRES   REMARKS
ROCHESTER      CLOUDY    32  29  88 N8        30.02R WCI  25
ROCHESTER/MAYO CLOUDY    33  30  90 N6        30.02R WCI  27
WINONA         CLOUDY    36  32  87 N5        30.02S WCI  32
AUSTIN         CLOUDY    32  30  93 N9        30.01R WCI  24
ALBERT LEA     CLOUDY    30  30 100 N14       30.01F WCI  20
DODGE CENTER   CLOUDY    32  30  93 N8        30.02R WCI  25
PRESTON        CLOUDY    32  30  93 N9        30.00R FOG     WCI  24
OWATONNA       CLOUDY    30  27  86 N8        30.05R WCI  23
FARIBAULT      CLOUDY    30  27  86 N7        30.06R WCI  23
$$

...ELSEWHERE IN MINNESOTA...


CITY           SKY/WX    TMP DP  RH WIND       PRES   REMARKS
MINNEAPOLIS    CLOUDY    31  24  75 N9        30.06S WCI  23
INTNL FALLS    CLOUDY    20  13  74 NW10      30.13R WCI   9
DULUTH         CLOUDY    28  21  75 N6        30.06S WCI  22
RED WING       CLOUDY    34  28  80 N3        30.03S
REDWOOD FALLS  CLOUDY    29  22  75 N12       30.10R WCI  19
MANKATO        CLOUDY    30  25  80 N9        30.07R WCI  22
WORTHINGTON    CLOUDY    25 -20  13 N15       30.06F WCI  12
FAIRMONT       CLOUDY    30  25  80 N15G21    30.04S WCI  19
$$

...SOUTHWEST WISCONSIN...


CITY           SKY/WX    TMP DP  RH WIND       PRES   REMARKS
LA CROSSE      MOCLDY    36  31  82 N8        29.99S WCI  30
PRAIRIE DU CHI CLOUDY    38  32  79 CALM      29.98R
BOSCOBEL       MOCLDY    38  32  79 CALM      29.99R
LONE ROCK      MOCLDY    38  31  76 E6        29.98R WCI  33
PLATTEVILLE    MOCLDY    40  36  84 CALM      29.99R
FORT MC COY    CLOUDY    37  32  82 CALM      30.00R
CAMP DOUGLAS   CLOUDY    35  35 100 N6        29.98R WCI  30
VIROQUA        CLOUDY    34  34 100 CALM      29.97R
WIS DELLS      MOCLDY    35  32  86 CALM      29.97S
$$

...ELSEWHERE IN WISCONSIN...


CITY           SKY/WX    TMP DP  RH WIND       PRES   REMARKS
MILWAUKEE      MOCLDY    41  34  76 CALM      30.01R
MADISON        CLOUDY    36  32  85 CALM      29.98R
GREEN BAY      CLOUDY    35  33  92 N3        30.03R FOG
EAU CLAIRE     CLOUDY    33  27  78 NE7       30.02S WCI  27
BLACK RVR FLS  CLOUDY    37  32  82 NE5       29.99S WCI  33
MEDFORD        CLOUDY    32  29  92 NE8       30.00R WCI  24
WAUSAU         CLOUDY    34  31  88 CALM      29.99R
WIS RAPIDS     CLOUDY    34  30  85 NE6       30.01R WCI  29
MARSHFIELD     CLOUDY    34  31  88 NE8       29.99R WCI  27
RICE LAKE      CLOUDY    32  28  85 N7        30.05S WCI  25
$$

...NORTHEAST IOWA...


CITY           SKY/WX    TMP DP  RH WIND       PRES   REMARKS
DECORAH        CLOUDY    34  32  93 N6        29.96S WCI  29
MASON CITY     CLOUDY    32  30  92 N15       29.99F WCI  22
CHARLES CITY   CLOUDY    34  34 100 N7        30.00R FOG     WCI  28
OELWEIN        CLOUDY    34  34 100 N3        29.98R
$$

...ELSEWHERE IN IOWA...


CITY           SKY/WX    TMP DP  RH WIND       PRES   REMARKS
DES MOINES     CLOUDY    35  31  85 N8        29.98F WCI  29
IOWA CITY      CLOUDY    40  35  83 CALM      29.99R
FORT DODGE     CLOUDY    32  28  86 N10       30.01R WCI  24
$$

...NORTHERN ILLINOIS...


CITY           SKY/WX    TMP DP  RH WIND       PRES   REMARKS
CHICAGO-OHARE  MOCLDY    43  38  82 S6        30.01R
CHICAGO-MIDWAY MOCLDY    50  41  71 S7        30.02R
MOLINE         PTCLDY    42  36  79 S3        29.97R
ROCKFORD       CLOUDY    44  39  82 S8        30.02R
PEORIA         CLOUDY    51  42  71 S14       30.01R
$$

NOTE: "FAIR" INDICATES FEW OR NO CLOUDS BELOW 12,000 FEET WITH NO
SIGNIFICANT WEATHER AND/OR OBSTRUCTIONS TO VISIBILITY. WIND
SPEEDS ARE IN MILES-PER-HOUR.



USA.gov is the U.S. government's official web portal to all federal, state and local government web resources and services.